Location: Newark
(36.1358°N, 115.1208°W)
Time: 18:55:08
(UTC+00:00)

ISS - Pass Details

Date: 05 October 2021
Orbit: 417 x 423 km, 51.6° (Epoch: 25 October)

Event Time Altitude Azimuth Distance (km) Brightness Sun altitude
Rises 02:53:41 0° 311° (NW) 2,363 1.0 -19.9°
Reaches altitude 10° 02:55:47 10° 312° (NW) 1,498 -0.2 -20.3°
Enters shadow 02:58:52 73° 322° (NW) 441 -3.7 -20.9°
